Location: Lobstick
(53.6000°N, 115.1667°W)
Time: 14:06:32
(UTC+00:00)

Gurwin Techsat 1B - Pass Details

Date: 29 November 2023
Orbit: 810 x 813 km, 98.9° (Epoch: 28 February)

Event Time Altitude Azimuth Distance (km) Brightness Sun altitude
Rises 12:16:24 0° 12° (NNE) 3,350 12.0 -27.8°
Reaches altitude 10° 12:18:53 10° 4° (N) 2,414 11.1 -27.4°
Enters shadow 12:20:26 19° 355° (N) 1,884 10.4 -27.2°
